Time,TemperatureF,DewpointF,PressureIn,WindDirection,WindDirectionDegrees,WindSpeedMPH,WindSpeedGustMPH,Humidity,HourlyPrecipIn,Conditions,Clouds,dailyrainin,SoftwareType,DateUTC
2013-09-28 00:02:00,74.3,61.8,29.60,SSE,155,10.0,21.0,65,0.00,,,0.00,VWS V12.08,2013-09-28 05:02:00,
2013-09-28 00:07:00,74.1,62.0,29.60,SE,142,14.0,21.0,66,0.00,,,0.00,VWS V12.08,2013-09-28 05:07:00,
2013-09-28 00:12:00,74.1,61.6,29.60,SE,126,14.0,21.0,65,0.00,,,0.00,VWS V12.08,2013-09-28 05:12:00,
2013-09-28 00:17:00,74.1,61.6,29.61,SE,129,11.0,24.0,65,0.00,,,0.00,VWS V12.08,2013-09-28 05:17:00,
2013-09-28 00:22:00,74.1,61.6,29.61,SSE,148,19.0,24.0,65,0.00,,,0.00,VWS V12.08,2013-09-28 05:22:00,
2013-09-28 00:27:00,74.0,61.9,29.61,South,172,23.0,27.0,66,0.00,,,0.00,VWS V12.08,2013-09-28 05:27:00,
2013-09-28 00:32:00,74.0,61.9,29.61,South,172,13.0,19.0,66,0.00,,,0.00,VWS V12.08,2013-09-28 05:32:00,
2013-09-28 00:37:00,73.9,61.8,29.61,SE,142,15.0,21.0,66,0.00,,,0.00,VWS V12.08,2013-09-28 05:37:00,
2013-09-28 00:42:00,73.8,61.7,29.61,SE,144,13.0,22.0,66,0.00,,,0.00,VWS V12.08,2013-09-28 05:42:00,
2013-09-28 00:47:00,73.7,61.7,29.60,ESE,123,15.0,22.0,66,0.00,,,0.00,VWS V12.08,2013-09-28 05:47:00,
2013-09-28 00:52:00,73.6,62.0,29.60,SE,140,20.0,22.0,67,0.00,,,0.00,VWS V12.08,2013-09-28 05:52:00,
2013-09-28 00:57:00,73.6,62.0,29.60,SE,143,21.0,29.0,67,0.00,,,0.00,VWS V12.08,2013-09-28 05:57:00,
2013-09-28 01:02:00,73.5,61.9,29.59,SSE,149,17.0,19.0,67,0.00,,,0.00,VWS V12.08,2013-09-28 06:02:00,
2013-09-28 01:07:00,73.3,62.1,29.59,SSE,167,10.0,24.0,68,0.00,,,0.00,VWS V12.08,2013-09-28 06:07:00,
2013-09-28 01:12:00,73.2,62.0,29.59,SE,143,18.0,24.0,68,0.00,,,0.00,VWS V12.08,2013-09-28 06:12:00,
2013-09-28 01:17:00,73.1,61.9,29.59,SE,139,17.0,24.0,68,0.00,,,0.00,VWS V12.08,2013-09-28 06:17:00,
2013-09-28 01:22:00,72.9,61.7,29.59,SSE,153,16.0,24.0,68,0.00,,,0.00,VWS V12.08,2013-09-28 06:22:00,
2013-09-28 01:27:00,72.9,62.1,29.59,SSE,168,13.0,24.0,69,0.00,,,0.00,VWS V12.08,2013-09-28 06:27:00,
2013-09-28 01:32:00,72.7,62.0,29.59,South,174,12.0,18.0,69,0.00,,,0.00,VWS V12.08,2013-09-28 06:32:00,
2013-09-28 01:37:00,72.6,61.9,29.58,SSE,148,12.0,24.0,69,0.00,,,0.00,VWS V12.08,2013-09-28 06:37:00,
2013-09-28 01:42:00,72.4,62.1,29.58,ESE,115,16.0,24.0,70,0.00,,,0.00,VWS V12.08,2013-09-28 06:42:00,
2013-09-28 01:47:00,72.4,62.1,29.57,SSE,156,13.0,24.0,70,0.00,,,0.00,VWS V12.08,2013-09-28 06:47:00,
2013-09-28 01:52:00,72.2,61.9,29.58,SSW,200,14.0,24.0,70,0.00,,,0.00,VWS V12.08,2013-09-28 06:52:00,
2013-09-28 01:57:00,72.1,61.8,29.57,SSE,147,17.0,24.0,70,0.00,,,0.00,VWS V12.08,2013-09-28 06:57:00,
2013-09-28 02:02:00,72.1,61.8,29.57,SSE,167,16.0,21.0,70,0.00,,,0.00,VWS V12.08,2013-09-28 07:02:00,
2013-09-28 02:07:00,72.0,62.1,29.57,SSE,149,18.0,23.0,71,0.00,,,0.00,VWS V12.08,2013-09-28 07:07:00,
2013-09-28 02:12:00,72.0,62.1,29.57,SSE,157,17.0,23.0,71,0.00,,,0.00,VWS V12.08,2013-09-28 07:12:00,
2013-09-28 02:17:00,71.9,62.0,29.57,SE,126,10.0,23.0,71,0.00,,,0.00,VWS V12.08,2013-09-28 07:17:00,
2013-09-28 02:22:00,71.8,61.9,29.57,SE,146,15.0,23.0,71,0.00,,,0.00,VWS V12.08,2013-09-28 07:22:00,
2013-09-28 02:27:00,71.8,61.9,29.58,South,190,11.0,23.0,71,0.00,,,0.00,VWS V12.08,2013-09-28 07:27:00,
2013-09-28 02:32:00,71.6,62.1,29.58,SSE,165,17.0,17.0,72,0.00,,,0.00,VWS V12.08,2013-09-28 07:32:00,
2013-09-28 02:37:00,71.6,62.1,29.59,SSE,162,10.0,20.0,72,0.00,,,0.00,VWS V12.08,2013-09-28 07:37:00,
2013-09-28 02:42:00,68.8,58.6,29.61,WSW,248,17.0,27.0,70,0.00,,,0.00,VWS V12.08,2013-09-28 07:42:00,
2013-09-28 02:47:00,64.7,58.0,29.60,West,272,10.0,27.0,79,0.00,,,0.00,VWS V12.08,2013-09-28 07:47:00,
2013-09-28 02:52:00,62.8,57.2,29.60,WSW,257,5.0,27.0,82,0.00,,,0.00,VWS V12.08,2013-09-28 07:52:00,
2013-09-28 02:57:00,61.7,56.8,29.60,West,268,9.0,27.0,84,0.00,,,0.00,VWS V12.08,2013-09-28 07:57:00,
2013-09-28 03:02:00,60.9,56.7,29.61,WSW,252,10.0,14.0,86,0.00,,,0.00,VWS V12.08,2013-09-28 08:02:00,
2013-09-28 03:07:00,59.9,56.3,29.60,WSW,257,9.0,14.0,88,0.04,,,0.04,VWS V12.08,2013-09-28 08:07:00,
2013-09-28 03:12:00,59.0,56.1,29.59,WNW,291,11.0,14.0,90,0.05,,,0.05,VWS V12.08,2013-09-28 08:12:00,
2013-09-28 03:17:00,58.3,55.7,29.59,WNW,284,7.0,14.0,91,0.05,,,0.05,VWS V12.08,2013-09-28 08:17:00,
2013-09-28 03:23:00,57.8,55.5,29.59,WNW,287,7.0,14.0,92,0.06,,,0.06,VWS V12.08,2013-09-28 08:23:00,
2013-09-28 03:28:00,57.6,55.3,29.59,WNW,298,5.0,14.0,92,0.06,,,0.06,VWS V12.08,2013-09-28 08:28:00,
2013-09-28 03:33:00,57.4,55.4,29.58,WNW,286,5.0,6.0,93,0.06,,,0.06,VWS V12.08,2013-09-28 08:33:00,
2013-09-28 03:38:00,57.3,55.3,29.59,West,276,5.0,9.0,93,0.06,,,0.06,VWS V12.08,2013-09-28 08:38:00,
2013-09-28 03:43:00,57.3,55.6,29.60,WNW,284,5.0,9.0,94,0.07,,,0.07,VWS V12.08,2013-09-28 08:43:00,
2013-09-28 03:48:00,57.2,55.5,29.60,WNW,293,5.0,10.0,94,0.10,,,0.10,VWS V12.08,2013-09-28 08:48:00,
2013-09-28 03:52:00,57.1,55.4,29.60,West,280,4.0,11.0,94,0.10,,,0.10,VWS V12.08,2013-09-28 08:52:00,
2013-09-28 03:57:00,57.1,55.4,29.59,NW,323,2.0,11.0,94,0.11,,,0.11,VWS V12.08,2013-09-28 08:57:00,
2013-09-28 04:02:00,57.0,55.3,29.59,NW,314,0.0,1.0,94,0.11,,,0.11,VWS V12.08,2013-09-28 09:02:00,
2013-09-28 04:07:00,57.1,55.7,29.59,SSE,148,0.0,3.0,95,0.11,,,0.11,VWS V12.08,2013-09-28 09:07:00,
2013-09-28 04:12:00,57.3,55.9,29.60,ESE,117,1.0,3.0,95,0.11,,,0.11,VWS V12.08,2013-09-28 09:12:00,
2013-09-28 04:17:00,57.5,56.1,29.59,ESE,111,0.0,3.0,95,0.14,,,0.15,VWS V12.08,2013-09-28 09:17:00,
2013-09-28 04:22:00,57.7,56.3,29.59,ESE,106,2.0,3.0,95,0.18,,,0.18,VWS V12.08,2013-09-28 09:22:00,
2013-09-28 04:27:00,57.8,56.4,29.58,East,87,0.0,3.0,95,0.20,,,0.21,VWS V12.08,2013-09-28 09:27:00,
2013-09-28 04:32:00,57.7,56.3,29.58,SSE,164,1.0,1.0,95,0.16,,,0.23,VWS V12.08,2013-09-28 09:32:00,
2013-09-28 04:37:00,57.9,56.5,29.58,ESE,107,1.0,1.0,95,0.19,,,0.25,VWS V12.08,2013-09-28 09:37:00,
2013-09-28 04:42:00,58.0,56.6,29.57,ESE,108,0.0,1.0,95,0.21,,,0.27,VWS V12.08,2013-09-28 09:42:00,
2013-09-28 04:47:00,58.0,56.6,29.57,SE,129,0.0,1.0,95,0.21,,,0.27,VWS V12.08,2013-09-28 09:47:00,
2013-09-28 04:52:00,58.0,56.6,29.57,WSW,246,1.0,3.0,95,0.21,,,0.27,VWS V12.08,2013-09-28 09:52:00,
2013-09-28 04:57:00,58.1,57.0,29.57,SSW,211,2.0,3.0,96,0.21,,,0.27,VWS V12.08,2013-09-28 09:57:00,
2013-09-28 05:02:00,58.1,56.7,29.58,WSW,250,3.0,6.0,95,0.16,,,0.27,VWS V12.08,2013-09-28 10:02:00,
2013-09-28 05:07:00,58.0,56.6,29.59,SW,229,3.0,9.0,95,0.16,,,0.27,VWS V12.08,2013-09-28 10:07:00,
2013-09-28 05:12:00,57.5,55.8,29.60,SW,234,9.0,13.0,94,0.16,,,0.27,VWS V12.08,2013-09-28 10:12:00,
2013-09-28 05:17:00,56.8,55.4,29.60,WSW,238,4.0,13.0,95,0.16,,,0.27,VWS V12.08,2013-09-28 10:17:00,
2013-09-28 05:22:00,56.4,55.0,29.61,WSW,241,6.0,13.0,95,0.16,,,0.27,VWS V12.08,2013-09-28 10:22:00,
2013-09-28 05:27:00,56.1,54.7,29.61,West,279,4.0,13.0,95,0.16,,,0.27,VWS V12.08,2013-09-28 10:27:00,
2013-09-28 05:32:00,55.8,54.4,29.61,WSW,243,4.0,11.0,95,0.05,,,0.27,VWS V12.08,2013-09-28 10:32:00,
2013-09-28 05:37:00,55.6,54.2,29.61,SW,221,9.0,11.0,95,0.05,,,0.27,VWS V12.08,2013-09-28 10:37:00,
2013-09-28 05:42:00,55.1,53.7,29.61,West,268,6.0,14.0,95,0.05,,,0.27,VWS V12.08,2013-09-28 10:42:00,
2013-09-28 05:47:00,54.9,53.5,29.61,WSW,241,13.0,14.0,95,0.05,,,0.27,VWS V12.08,2013-09-28 10:47:00,
2013-09-28 05:52:00,54.7,53.3,29.62,SW,236,7.0,14.0,95,0.05,,,0.27,VWS V12.08,2013-09-28 10:52:00,
2013-09-28 05:57:00,54.7,53.6,29.61,WSW,241,10.0,14.0,96,0.05,,,0.27,VWS V12.08,2013-09-28 10:57:00,
2013-09-28 06:02:00,54.5,53.1,29.62,West,277,9.0,16.0,95,0.00,,,0.27,VWS V12.08,2013-09-28 11:02:00,
2013-09-28 06:07:00,54.4,53.0,29.62,WNW,287,4.0,16.0,95,0.00,,,0.27,VWS V12.08,2013-09-28 11:07:00,
2013-09-28 06:12:00,54.2,52.8,29.62,West,264,13.0,17.0,95,0.00,,,0.27,VWS V12.08,2013-09-28 11:12:00,
2013-09-28 06:17:00,54.1,52.7,29.62,SW,226,6.0,17.0,95,0.00,,,0.27,VWS V12.08,2013-09-28 11:17:00,
2013-09-28 06:22:00,54.0,52.6,29.61,WSW,250,8.0,17.0,95,0.01,,,0.28,VWS V12.08,2013-09-28 11:22:00,
2013-09-28 06:27:00,54.0,52.6,29.62,WNW,292,12.0,17.0,95,0.01,,,0.28,VWS V12.08,2013-09-28 11:27:00,
2013-09-28 06:32:00,53.9,52.5,29.62,SW,223,3.0,10.0,95,0.01,,,0.28,VWS V12.08,2013-09-28 11:32:00,
2013-09-28 06:37:00,53.9,52.5,29.62,WSW,247,10.0,10.0,95,0.02,,,0.29,VWS V12.08,2013-09-28 11:37:00,
2013-09-28 06:42:00,53.8,52.4,29.63,WSW,240,5.0,12.0,95,0.02,,,0.29,VWS V12.08,2013-09-28 11:42:00,
2013-09-28 06:47:00,53.7,52.3,29.63,West,259,5.0,12.0,95,0.02,,,0.29,VWS V12.08,2013-09-28 11:47:00,
2013-09-28 06:52:00,53.7,52.3,29.63,WNW,284,8.0,12.0,95,0.02,,,0.29,VWS V12.08,2013-09-28 11:52:00,
2013-09-28 06:57:00,53.6,52.2,29.62,WSW,257,11.0,12.0,95,0.02,,,0.29,VWS V12.08,2013-09-28 11:57:00,
2013-09-28 07:02:00,53.5,52.1,29.62,WSW,249,10.0,10.0,95,0.02,,,0.29,VWS V12.08,2013-09-28 12:02:00,
2013-09-28 07:07:00,53.5,52.1,29.61,WNW,287,6.0,14.0,95,0.03,,,0.30,VWS V12.08,2013-09-28 12:07:00,
2013-09-28 07:12:00,53.4,52.0,29.61,WNW,286,11.0,15.0,95,0.03,,,0.30,VWS V12.08,2013-09-28 12:12:00,
2013-09-28 07:17:00,53.2,51.5,29.62,WNW,286,14.0,21.0,94,0.03,,,0.30,VWS V12.08,2013-09-28 12:17:00,
2013-09-28 07:22:00,53.1,51.4,29.64,West,273,14.0,21.0,94,0.03,,,0.30,VWS V12.08,2013-09-28 12:22:00,
2013-09-28 07:27:00,52.9,50.9,29.63,WNW,286,12.0,21.0,93,0.03,,,0.30,VWS V12.08,2013-09-28 12:27:00,
2013-09-28 07:32:00,52.9,50.9,29.65,West,277,11.0,19.0,93,0.02,,,0.30,VWS V12.08,2013-09-28 12:32:00,
2013-09-28 07:37:00,52.9,50.9,29.65,WNW,287,6.0,19.0,93,0.02,,,0.30,VWS V12.08,2013-09-28 12:37:00,
2013-09-28 07:42:00,52.8,50.8,29.65,West,276,6.0,19.0,93,0.02,,,0.30,VWS V12.08,2013-09-28 12:42:00,
2013-09-28 07:47:00,52.9,50.9,29.67,WNW,288,11.0,19.0,93,0.02,,,0.30,VWS V12.08,2013-09-28 12:47:00,
2013-09-28 07:52:00,52.9,50.9,29.67,West,259,9.0,19.0,93,0.02,,,0.30,VWS V12.08,2013-09-28 12:52:00,
2013-09-28 07:57:00,52.8,50.8,29.68,West,268,4.0,19.0,93,0.02,,,0.30,VWS V12.08,2013-09-28 12:57:00,
2013-09-28 08:02:00,52.8,50.8,29.68,SW,232,5.0,12.0,93,0.01,,,0.30,VWS V12.08,2013-09-28 13:02:00,
2013-09-28 08:07:00,52.9,50.9,29.69,WSW,252,11.0,15.0,93,0.01,,,0.30,VWS V12.08,2013-09-28 13:07:00,
2013-09-28 08:12:00,52.9,50.9,29.69,West,259,10.0,16.0,93,0.01,,,0.30,VWS V12.08,2013-09-28 13:12:00,
2013-09-28 08:17:00,52.8,51.1,29.69,SW,233,10.0,17.0,94,0.01,,,0.30,VWS V12.08,2013-09-28 13:17:00,
2013-09-28 08:22:00,52.8,50.8,29.69,West,265,3.0,17.0,93,0.01,,,0.30,VWS V12.08,2013-09-28 13:22:00,
2013-09-28 08:27:00,52.8,50.8,29.69,West,275,14.0,17.0,93,0.01,,,0.30,VWS V12.08,2013-09-28 13:27:00,
2013-09-28 08:32:00,52.6,50.9,29.69,West,269,13.0,16.0,94,0.00,,,0.30,VWS V12.08,2013-09-28 13:32:00,
2013-09-28 08:37:00,52.4,50.7,29.69,West,277,6.0,19.0,94,0.00,,,0.30,VWS V12.08,2013-09-28 13:37:00,
2013-09-28 08:42:00,52.3,50.9,29.69,WSW,256,12.0,19.0,95,0.00,,,0.30,VWS V12.08,2013-09-28 13:42:00,
2013-09-28 08:47:00,52.2,50.8,29.70,WNW,288,14.0,19.0,95,0.00,,,0.30,VWS V12.08,2013-09-28 13:47:00,
2013-09-28 08:52:00,52.1,50.4,29.70,West,269,13.0,22.0,94,0.00,,,0.30,VWS V12.08,2013-09-28 13:52:00,
2013-09-28 08:57:00,52.0,50.3,29.70,West,280,12.0,22.0,94,0.00,,,0.30,VWS V12.08,2013-09-28 13:57:00,
2013-09-28 09:03:00,51.9,49.9,29.71,West,259,10.0,24.0,93,0.00,,,0.30,VWS V12.08,2013-09-28 14:03:00,
2013-09-28 09:08:00,51.8,49.8,29.71,NW,315,8.0,24.0,93,0.00,,,0.30,VWS V12.08,2013-09-28 14:08:00,
2013-09-28 09:13:00,51.7,49.8,29.71,West,268,12.0,24.0,93,0.00,,,0.30,VWS V12.08,2013-09-28 14:13:00,
2013-09-28 09:18:00,51.5,49.5,29.71,West,267,13.0,24.0,93,0.00,,,0.30,VWS V12.08,2013-09-28 14:18:00,
2013-09-28 09:23:00,51.4,49.5,29.72,West,268,18.0,24.0,93,0.00,,,0.30,VWS V12.08,2013-09-28 14:23:00,
2013-09-28 09:28:00,51.4,49.7,29.72,West,277,20.0,25.0,94,0.00,,,0.30,VWS V12.08,2013-09-28 14:28:00,
2013-09-28 09:33:00,51.5,49.5,29.72,SSW,213,9.0,19.0,93,0.00,,,0.30,VWS V12.08,2013-09-28 14:33:00,
2013-09-28 09:38:00,51.6,49.7,29.73,WNW,288,17.0,23.0,93,0.00,,,0.30,VWS V12.08,2013-09-28 14:38:00,
2013-09-28 09:43:00,51.8,49.5,29.73,West,276,17.0,23.0,92,0.00,,,0.30,VWS V12.08,2013-09-28 14:43:00,
2013-09-28 09:48:00,51.9,49.7,29.73,West,277,12.0,26.0,92,0.00,,,0.30,VWS V12.08,2013-09-28 14:48:00,
2013-09-28 09:53:00,51.9,49.4,29.74,WNW,296,20.0,27.0,91,0.00,,,0.30,VWS V12.08,2013-09-28 14:53:00,
2013-09-28 09:58:00,52.0,49.5,29.74,WNW,291,13.0,27.0,91,0.00,,,0.30,VWS V12.08,2013-09-28 14:58:00,
2013-09-28 10:03:00,52.0,49.5,29.74,WNW,299,9.0,16.0,91,0.00,,,0.30,VWS V12.08,2013-09-28 15:03:00,
2013-09-28 10:08:00,52.0,49.2,29.74,WSW,241,11.0,25.0,90,0.00,,,0.30,VWS V12.08,2013-09-28 15:08:00,
2013-09-28 10:13:00,52.2,49.7,29.75,West,268,11.0,25.0,91,0.00,,,0.30,VWS V12.08,2013-09-28 15:13:00,
2013-09-28 10:18:00,51.7,48.6,29.75,WSW,248,24.0,25.0,89,0.00,,,0.30,VWS V12.08,2013-09-28 15:18:00,
2013-09-28 10:23:00,51.6,48.8,29.75,West,277,12.0,25.0,90,0.00,,,0.30,VWS V12.08,2013-09-28 15:23:00,
2013-09-28 10:28:00,51.7,48.9,29.75,SW,229,11.0,25.0,90,0.00,,,0.30,VWS V12.08,2013-09-28 15:28:00,
2013-09-28 10:33:00,51.9,49.1,29.75,West,259,7.0,17.0,90,0.00,,,0.30,VWS V12.08,2013-09-28 15:33:00,
2013-09-28 10:38:00,52.3,48.9,29.76,SW,222,7.0,20.0,88,0.00,,,0.30,VWS V12.08,2013-09-28 15:38:00,
2013-09-28 10:43:00,52.9,49.1,29.76,West,277,13.0,20.0,87,0.00,,,0.30,VWS V12.08,2013-09-28 15:43:00,
2013-09-28 10:48:00,53.5,49.4,29.76,WNW,283,9.0,20.0,86,0.00,,,0.30,VWS V12.08,2013-09-28 15:48:00,
2013-09-28 10:53:00,53.7,49.0,29.76,WNW,283,10.0,20.0,84,0.00,,,0.30,VWS V12.08,2013-09-28 15:53:00,
2013-09-28 10:58:00,53.8,49.1,29.77,West,263,12.0,23.0,84,0.00,,,0.30,VWS V12.08,2013-09-28 15:58:00,
2013-09-28 11:03:00,53.7,49.0,29.77,West,272,18.0,20.0,84,0.00,,,0.30,VWS V12.08,2013-09-28 16:03:00,
2013-09-28 11:08:00,53.8,49.1,29.78,West,265,19.0,22.0,84,0.00,,,0.30,VWS V12.08,2013-09-28 16:08:00,
2013-09-28 11:13:00,53.6,48.9,29.78,West,261,5.0,22.0,84,0.00,,,0.30,VWS V12.08,2013-09-28 16:13:00,
2013-09-28 11:18:00,53.3,48.6,29.79,WNW,286,13.0,22.0,84,0.00,,,0.30,VWS V12.08,2013-09-28 16:18:00,
2013-09-28 11:23:00,53.2,48.5,29.79,WNW,287,8.0,22.0,84,0.00,,,0.30,VWS V12.08,2013-09-28 16:23:00,
2013-09-28 11:28:00,53.0,48.3,29.79,WNW,284,11.0,22.0,84,0.00,,,0.30,VWS V12.08,2013-09-28 16:28:00,
2013-09-28 11:33:00,52.9,48.2,29.79,SW,232,11.0,18.0,84,0.00,,,0.30,VWS V12.08,2013-09-28 16:33:00,
2013-09-28 11:38:00,53.1,48.1,29.80,WSW,253,11.0,22.0,83,0.00,,,0.30,VWS V12.08,2013-09-28 16:38:00,
2013-09-28 11:43:00,53.2,47.5,29.80,SW,225,5.0,23.0,81,0.00,,,0.30,VWS V12.08,2013-09-28 16:43:00,
2013-09-28 11:48:00,53.3,48.0,29.80,West,279,7.0,23.0,82,0.00,,,0.30,VWS V12.08,2013-09-28 16:48:00,
2013-09-28 11:53:00,53.3,47.3,29.81,West,279,9.0,24.0,80,0.00,,,0.30,VWS V12.08,2013-09-28 16:53:00,
2013-09-28 11:58:00,53.2,47.2,29.81,West,265,17.0,24.0,80,0.00,,,0.30,VWS V12.08,2013-09-28 16:58:00,
2013-09-28 12:03:00,53.1,47.4,29.81,SW,225,13.0,18.0,81,0.00,,,0.30,VWS V12.08,2013-09-28 17:03:00,
2013-09-28 12:08:00,53.3,47.3,29.81,WNW,292,18.0,18.0,80,0.00,,,0.30,VWS V12.08,2013-09-28 17:08:00,
2013-09-28 12:13:00,54.3,47.6,29.80,NW,319,6.0,18.0,78,0.00,,,0.30,VWS V12.08,2013-09-28 17:13:00,
2013-09-28 12:18:00,54.8,47.4,29.81,WSW,242,14.0,21.0,76,0.00,,,0.30,VWS V12.08,2013-09-28 17:18:00,
2013-09-28 12:23:00,54.6,47.5,29.81,SW,234,5.0,21.0,77,0.00,,,0.30,VWS V12.08,2013-09-28 17:23:00,
2013-09-28 12:28:00,55.0,46.9,29.81,West,269,14.0,21.0,74,0.00,,,0.30,VWS V12.08,2013-09-28 17:28:00,
2013-09-28 12:33:00,55.3,47.2,29.81,West,268,13.0,20.0,74,0.00,,,0.30,VWS V12.08,2013-09-28 17:33:00,
2013-09-28 12:38:00,55.1,46.6,29.81,West,277,10.0,21.0,73,0.00,,,0.30,VWS V12.08,2013-09-28 17:38:00,
2013-09-28 12:43:00,54.9,46.8,29.82,NW,325,7.0,21.0,74,0.00,,,0.30,VWS V12.08,2013-09-28 17:43:00,
2013-09-28 12:48:00,54.6,45.8,29.82,WSW,257,13.0,23.0,72,0.00,,,0.30,VWS V12.08,2013-09-28 17:48:00,
2013-09-28 12:53:00,54.9,46.4,29.82,West,280,12.0,23.0,73,0.00,,,0.30,VWS V12.08,2013-09-28 17:53:00,
2013-09-28 12:58:00,55.2,46.0,29.82,WSW,246,12.0,23.0,71,0.00,,,0.30,VWS V12.08,2013-09-28 17:58:00,
2013-09-28 13:03:00,55.2,46.0,29.82,WNW,288,18.0,18.0,71,0.00,,,0.30,VWS V12.08,2013-09-28 18:03:00,
2013-09-28 13:08:00,55.7,45.7,29.82,NW,321,10.0,26.0,69,0.00,,,0.30,VWS V12.08,2013-09-28 18:08:00,
2013-09-28 13:13:00,55.9,45.5,29.82,West,280,14.0,26.0,68,0.00,,,0.30,VWS V12.08,2013-09-28 18:13:00,
2013-09-28 13:18:00,56.3,45.5,29.82,WNW,287,10.0,26.0,67,0.00,,,0.30,VWS V12.08,2013-09-28 18:18:00,
2013-09-28 13:23:00,56.7,44.3,29.82,West,267,18.0,26.0,63,0.00,,,0.30,VWS V12.08,2013-09-28 18:23:00,
2013-09-28 13:28:00,57.3,45.2,29.82,West,272,11.0,26.0,64,0.00,,,0.30,VWS V12.08,2013-09-28 18:28:00,
2013-09-28 13:33:00,57.8,44.5,29.82,West,259,17.0,20.0,61,0.00,,,0.30,VWS V12.08,2013-09-28 18:33:00,
2013-09-28 13:38:00,58.1,44.3,29.82,WNW,291,18.0,26.0,60,0.00,,,0.30,VWS V12.08,2013-09-28 18:38:00,
2013-09-28 13:43:00,58.2,44.4,29.82,WNW,287,17.0,26.0,60,0.00,,,0.30,VWS V12.08,2013-09-28 18:43:00,
2013-09-28 13:48:00,58.3,44.0,29.82,WNW,289,19.0,27.0,59,0.00,,,0.30,VWS V12.08,2013-09-28 18:48:00,
2013-09-28 13:53:00,58.4,44.6,29.82,SW,234,17.0,27.0,60,0.00,,,0.30,VWS V12.08,2013-09-28 18:53:00,
2013-09-28 13:58:00,58.8,44.5,29.81,WSW,254,15.0,27.0,59,0.00,,,0.30,VWS V12.08,2013-09-28 18:58:00,
2013-09-28 14:03:00,58.9,42.8,29.82,West,280,21.0,26.0,55,0.00,,,0.30,VWS V12.08,2013-09-28 19:03:00,
2013-09-28 14:09:00,59.0,43.8,29.82,West,267,18.0,26.0,57,0.00,,,0.30,VWS V12.08,2013-09-28 19:09:00,
2013-09-28 14:14:00,59.3,43.2,29.82,West,264,8.0,26.0,55,0.00,,,0.30,VWS V12.08,2013-09-28 19:14:00,
2013-09-28 14:19:00,59.6,43.0,29.82,SW,234,14.0,27.0,54,0.00,,,0.30,VWS V12.08,2013-09-28 19:19:00,
2013-09-28 14:24:00,59.6,43.4,29.83,West,277,16.0,27.0,55,0.00,,,0.30,VWS V12.08,2013-09-28 19:24:00,
2013-09-28 14:29:00,59.8,43.6,29.83,WNW,291,12.0,27.0,55,0.00,,,0.30,VWS V12.08,2013-09-28 19:29:00,
2013-09-28 14:34:00,60.0,42.8,29.83,West,276,11.0,22.0,53,0.00,,,0.30,VWS V12.08,2013-09-28 19:34:00,
2013-09-28 14:39:00,60.0,42.8,29.83,WNW,300,11.0,22.0,53,0.00,,,0.30,VWS V12.08,2013-09-28 19:39:00,
2013-09-28 14:44:00,60.4,43.7,29.83,West,261,13.0,23.0,54,0.00,,,0.30,VWS V12.08,2013-09-28 19:44:00,
2013-09-28 14:49:00,61.3,43.0,29.83,West,272,13.0,23.0,51,0.00,,,0.30,VWS V12.08,2013-09-28 19:49:00,
2013-09-28 14:54:00,60.9,42.2,29.83,WSW,248,13.0,27.0,50,0.00,,,0.30,VWS V12.08,2013-09-28 19:54:00,
2013-09-28 14:59:00,60.9,42.2,29.83,WNW,286,9.0,27.0,50,0.00,,,0.30,VWS V12.08,2013-09-28 19:59:00,
2013-09-28 15:04:00,61.2,41.9,29.83,WSW,249,9.0,19.0,49,0.00,,,0.30,VWS V12.08,2013-09-28 20:04:00,
2013-09-28 15:09:00,61.1,41.3,29.84,West,277,10.0,27.0,48,0.00,,,0.30,VWS V12.08,2013-09-28 20:09:00,
2013-09-28 15:14:00,61.0,41.7,29.84,WNW,284,12.0,27.0,49,0.00,,,0.30,VWS V12.08,2013-09-28 20:14:00,
2013-09-28 15:19:00,61.2,41.4,29.84,West,277,16.0,27.0,48,0.00,,,0.30,VWS V12.08,2013-09-28 20:19:00,
2013-09-28 15:24:00,61.6,42.3,29.84,WNW,292,10.0,27.0,49,0.00,,,0.30,VWS V12.08,2013-09-28 20:24:00,
2013-09-28 15:29:00,61.7,41.8,29.84,WSW,249,12.0,27.0,48,0.00,,,0.30,VWS V12.08,2013-09-28 20:29:00,
2013-09-28 15:34:00,61.9,42.0,29.84,NW,317,9.0,20.0,48,0.00,,,0.30,VWS V12.08,2013-09-28 20:34:00,
2013-09-28 15:39:00,61.7,40.7,29.84,WSW,253,13.0,20.0,46,0.00,,,0.30,VWS V12.08,2013-09-28 20:39:00,
2013-09-28 15:44:00,61.8,41.9,29.84,WNW,294,19.0,21.0,48,0.00,,,0.30,VWS V12.08,2013-09-28 20:44:00,
2013-09-28 15:49:00,61.8,41.4,29.84,West,273,11.0,21.0,47,0.00,,,0.30,VWS V12.08,2013-09-28 20:49:00,
2013-09-28 15:54:00,62.2,41.7,29.84,West,275,6.0,21.0,47,0.00,,,0.30,VWS V12.08,2013-09-28 20:54:00,
2013-09-28 15:59:00,62.3,41.8,29.84,WNW,287,11.0,21.0,47,0.00,,,0.30,VWS V12.08,2013-09-28 20:59:00,
2013-09-28 16:04:00,62.3,42.4,29.84,West,280,15.0,20.0,48,0.00,,,0.30,VWS V12.08,2013-09-28 21:04:00,
2013-09-28 16:09:00,62.5,42.6,29.84,West,271,7.0,20.0,48,0.00,,,0.30,VWS V12.08,2013-09-28 21:09:00,
2013-09-28 16:14:00,62.5,41.5,29.84,NW,304,6.0,20.0,46,0.00,,,0.30,VWS V12.08,2013-09-28 21:14:00,
2013-09-28 16:19:00,62.6,41.5,29.84,West,264,10.0,20.0,46,0.00,,,0.30,VWS V12.08,2013-09-28 21:19:00,
2013-09-28 16:24:00,62.7,41.1,29.85,WNW,284,9.0,21.0,45,0.00,,,0.30,VWS V12.08,2013-09-28 21:24:00,
2013-09-28 16:29:00,62.8,41.7,29.85,WSW,250,15.0,21.0,46,0.00,,,0.30,VWS V12.08,2013-09-28 21:29:00,
2013-09-28 16:34:00,62.7,41.6,29.85,West,267,8.0,19.0,46,0.00,,,0.30,VWS V12.08,2013-09-28 21:34:00,
2013-09-28 16:39:00,62.9,41.8,29.85,WNW,289,11.0,19.0,46,0.00,,,0.30,VWS V12.08,2013-09-28 21:39:00,
2013-09-28 16:44:00,62.9,41.8,29.85,West,265,17.0,21.0,46,0.00,,,0.30,VWS V12.08,2013-09-28 21:44:00,
2013-09-28 16:49:00,62.9,42.4,29.85,WSW,243,5.0,21.0,47,0.00,,,0.30,VWS V12.08,2013-09-28 21:49:00,
2013-09-28 16:54:00,62.7,41.6,29.85,WSW,253,6.0,23.0,46,0.00,,,0.30,VWS V12.08,2013-09-28 21:54:00,
2013-09-28 16:59:00,62.9,41.8,29.86,West,267,9.0,23.0,46,0.00,,,0.30,VWS V12.08,2013-09-28 21:59:00,
2013-09-28 17:04:00,63.0,41.3,29.86,SW,222,7.0,15.0,45,0.00,,,0.30,VWS V12.08,2013-09-28 22:04:00,
2013-09-28 17:09:00,63.0,41.9,29.86,WSW,253,9.0,17.0,46,0.00,,,0.30,VWS V12.08,2013-09-28 22:09:00,
2013-09-28 17:14:00,63.1,42.0,29.86,West,263,9.0,17.0,46,0.00,,,0.30,VWS V12.08,2013-09-28 22:14:00,
2013-09-28 17:19:00,63.0,41.3,29.86,WNW,282,18.0,21.0,45,0.00,,,0.30,VWS V12.08,2013-09-28 22:19:00,
2013-09-28 17:24:00,62.8,41.7,29.86,SW,222,12.0,21.0,46,0.00,,,0.30,VWS V12.08,2013-09-28 22:24:00,
2013-09-28 17:29:00,62.9,41.3,29.87,West,266,11.0,21.0,45,0.00,,,0.30,VWS V12.08,2013-09-28 22:29:00,
2013-09-28 17:35:00,62.8,41.2,29.87,SW,232,4.0,17.0,45,0.00,,,0.30,VWS V12.08,2013-09-28 22:35:00,
2013-09-28 17:40:00,62.9,41.3,29.87,West,272,12.0,17.0,45,0.00,,,0.30,VWS V12.08,2013-09-28 22:40:00,
2013-09-28 17:45:00,63.0,40.8,29.87,West,259,10.0,17.0,44,0.00,,,0.30,VWS V12.08,2013-09-28 22:45:00,
2013-09-28 17:50:00,63.1,41.4,29.88,West,273,7.0,17.0,45,0.00,,,0.30,VWS V12.08,2013-09-28 22:50:00,
2013-09-28 17:55:00,63.1,40.9,29.88,WSW,248,7.0,17.0,44,0.00,,,0.30,VWS V12.08,2013-09-28 22:55:00,
2013-09-28 18:00:00,62.9,40.7,29.88,WNW,292,8.0,19.0,44,0.00,,,0.30,VWS V12.08,2013-09-28 23:00:00,
2013-09-28 18:05:00,62.9,41.3,29.88,West,275,6.0,13.0,45,0.00,,,0.30,VWS V12.08,2013-09-28 23:05:00,
2013-09-28 18:10:00,62.8,40.6,29.89,West,277,7.0,23.0,44,0.00,,,0.30,VWS V12.08,2013-09-28 23:10:00,
2013-09-28 18:15:00,62.8,41.2,29.89,West,272,6.0,23.0,45,0.00,,,0.30,VWS V12.08,2013-09-28 23:15:00,
2013-09-28 18:20:00,62.8,41.7,29.89,West,267,5.0,23.0,46,0.00,,,0.30,VWS V12.08,2013-09-28 23:20:00,
2013-09-28 18:25:00,62.6,41.5,29.89,West,272,7.0,23.0,46,0.00,,,0.30,VWS V12.08,2013-09-28 23:25:00,
2013-09-28 18:30:00,62.5,41.5,29.90,West,277,9.0,23.0,46,0.00,,,0.30,VWS V12.08,2013-09-28 23:30:00,
2013-09-28 18:35:00,62.4,41.9,29.90,WSW,240,10.0,12.0,47,0.00,,,0.30,VWS V12.08,2013-09-28 23:35:00,
2013-09-28 18:40:00,62.2,41.7,29.90,WSW,250,4.0,12.0,47,0.00,,,0.30,VWS V12.08,2013-09-28 23:40:00,
2013-09-28 18:45:00,62.0,42.1,29.90,West,271,5.0,12.0,48,0.00,,,0.30,VWS V12.08,2013-09-28 23:45:00,
2013-09-28 18:50:00,61.8,41.9,29.90,West,275,5.0,12.0,48,0.00,,,0.30,VWS V12.08,2013-09-28 23:50:00,
2013-09-28 18:55:00,61.5,42.2,29.90,WSW,256,6.0,12.0,49,0.00,,,0.30,VWS V12.08,2013-09-28 23:55:00,
2013-09-28 19:00:00,61.2,41.9,29.91,West,259,6.0,12.0,49,0.00,,,0.30,VWS V12.08,2013-09-29 00:00:00,
2013-09-28 19:05:00,60.7,42.0,29.91,West,268,4.0,6.0,50,0.00,,,0.30,VWS V12.08,2013-09-29 00:05:00,
2013-09-28 19:10:00,60.2,42.0,29.91,West,275,2.0,7.0,51,0.00,,,0.30,VWS V12.08,2013-09-29 00:10:00,
2013-09-28 19:15:00,59.7,42.1,29.91,WSW,240,7.0,7.0,52,0.00,,,0.30,VWS V12.08,2013-09-29 00:15:00,
2013-09-28 19:20:00,59.3,42.2,29.91,West,269,4.0,7.0,53,0.00,,,0.30,VWS V12.08,2013-09-29 00:20:00,
2013-09-28 19:25:00,58.6,42.5,29.91,West,264,2.0,7.0,55,0.00,,,0.30,VWS V12.08,2013-09-29 00:25:00,
2013-09-28 19:30:00,58.1,42.0,29.91,SW,223,2.0,7.0,55,0.00,,,0.30,VWS V12.08,2013-09-29 00:30:00,
2013-09-28 19:35:00,57.8,42.2,29.91,SW,234,2.0,4.0,56,0.00,,,0.30,VWS V12.08,2013-09-29 00:35:00,
2013-09-28 19:40:00,57.4,42.8,29.91,SW,227,2.0,4.0,58,0.00,,,0.30,VWS V12.08,2013-09-29 00:40:00,
2013-09-28 19:45:00,57.2,43.0,29.91,SW,217,1.0,4.0,59,0.00,,,0.30,VWS V12.08,2013-09-29 00:45:00,
2013-09-28 19:50:00,56.8,42.6,29.91,SSW,203,1.0,4.0,59,0.00,,,0.30,VWS V12.08,2013-09-29 00:50:00,
2013-09-28 19:55:00,56.5,42.4,29.91,SSW,194,2.0,4.0,59,0.00,,,0.30,VWS V12.08,2013-09-29 00:55:00,
2013-09-28 20:00:00,56.1,42.8,29.91,SSW,206,0.0,4.0,61,0.00,,,0.30,VWS V12.08,2013-09-29 01:00:00,
2013-09-28 20:05:00,55.6,43.2,29.91,SSE,167,0.0,1.0,63,0.00,,,0.30,VWS V12.08,2013-09-29 01:05:00,
2013-09-28 20:11:00,55.1,43.2,29.91,SSW,210,0.0,2.0,64,0.00,,,0.30,VWS V12.08,2013-09-29 01:11:00,
2013-09-28 20:16:00,54.6,43.1,29.91,SSW,210,0.0,2.0,65,0.00,,,0.30,VWS V12.08,2013-09-29 01:16:00,
2013-09-28 20:21:00,54.1,43.0,29.91,South,187,1.0,2.0,66,0.00,,,0.30,VWS V12.08,2013-09-29 01:21:00,
2013-09-28 20:26:00,53.7,43.0,29.91,SSW,203,0.0,2.0,67,0.00,,,0.30,VWS V12.08,2013-09-29 01:26:00,
2013-09-28 20:31:00,53.3,43.0,29.91,SSW,203,0.0,2.0,68,0.00,,,0.30,VWS V12.08,2013-09-29 01:31:00,
2013-09-28 20:36:00,52.9,43.0,29.91,SSW,203,1.0,1.0,69,0.00,,,0.30,VWS V12.08,2013-09-29 01:36:00,
2013-09-28 20:41:00,52.7,43.2,29.92,SSW,210,1.0,2.0,70,0.00,,,0.30,VWS V12.08,2013-09-29 01:41:00,
2013-09-28 20:46:00,52.4,43.3,29.92,SSE,151,1.0,2.0,71,0.00,,,0.30,VWS V12.08,2013-09-29 01:46:00,
2013-09-28 20:51:00,52.2,43.1,29.92,SSE,160,0.0,2.0,71,0.00,,,0.30,VWS V12.08,2013-09-29 01:51:00,
2013-09-28 20:56:00,52.0,43.3,29.92,SSE,148,0.0,2.0,72,0.00,,,0.30,VWS V12.08,2013-09-29 01:56:00,
2013-09-28 21:01:00,51.7,43.3,29.92,SE,144,1.0,2.0,73,0.00,,,0.30,VWS V12.08,2013-09-29 02:01:00,
2013-09-28 21:06:00,51.3,43.3,29.92,SSE,161,0.0,2.0,74,0.00,,,0.30,VWS V12.08,2013-09-29 02:06:00,
2013-09-28 21:11:00,51.0,43.4,29.92,SSE,159,0.0,2.0,75,0.00,,,0.30,VWS V12.08,2013-09-29 02:11:00,
2013-09-28 21:16:00,50.8,43.2,29.92,SSE,151,0.0,2.0,75,0.00,,,0.30,VWS V12.08,2013-09-29 02:16:00,
2013-09-28 21:21:00,50.6,43.3,29.93,SSE,148,1.0,2.0,76,0.00,,,0.30,VWS V12.08,2013-09-29 02:21:00,
2013-09-28 21:26:00,50.3,43.4,29.93,SSE,157,0.0,2.0,77,0.00,,,0.30,VWS V12.08,2013-09-29 02:26:00,
2013-09-28 21:31:00,50.1,43.2,29.93,SE,140,1.0,2.0,77,0.00,,,0.30,VWS V12.08,2013-09-29 02:31:00,
2013-09-28 21:35:00,50.0,43.1,29.93,SSW,203,2.0,2.0,77,0.00,,,0.30,VWS V12.08,2013-09-29 02:35:00,
2013-09-28 21:41:00,50.0,43.1,29.93,SSW,203,1.0,2.0,77,0.00,,,0.30,VWS V12.08,2013-09-29 02:41:00,
2013-09-28 21:46:00,49.9,43.0,29.93,SSW,207,0.0,2.0,77,0.00,,,0.30,VWS V12.08,2013-09-29 02:46:00,
2013-09-28 21:51:00,49.7,42.8,29.93,SSW,209,0.0,2.0,77,0.00,,,0.30,VWS V12.08,2013-09-29 02:51:00,
2013-09-28 21:56:00,49.5,42.9,29.93,SSW,205,0.0,2.0,78,0.00,,,0.30,VWS V12.08,2013-09-29 02:56:00,
2013-09-28 22:01:00,49.3,42.7,29.93,SW,214,0.0,0.0,78,0.00,,,0.30,VWS V12.08,2013-09-29 03:01:00,
2013-09-28 22:06:00,49.2,42.6,29.93,SSW,198,0.0,1.0,78,0.00,,,0.30,VWS V12.08,2013-09-29 03:06:00,
2013-09-28 22:11:00,49.1,42.5,29.93,SSE,166,0.0,1.0,78,0.00,,,0.30,VWS V12.08,2013-09-29 03:11:00,
2013-09-28 22:16:00,49.2,43.0,29.93,SSW,203,0.0,2.0,79,0.00,,,0.30,VWS V12.08,2013-09-29 03:16:00,
2013-09-28 22:21:00,49.2,42.6,29.93,SSW,206,1.0,2.0,78,0.00,,,0.30,VWS V12.08,2013-09-29 03:21:00,
2013-09-28 22:26:00,49.2,43.0,29.93,SSE,163,0.0,2.0,79,0.00,,,0.30,VWS V12.08,2013-09-29 03:26:00,
2013-09-28 22:31:00,49.1,42.9,29.94,SSE,157,0.0,2.0,79,0.00,,,0.30,VWS V12.08,2013-09-29 03:31:00,
2013-09-28 22:36:00,48.9,42.7,29.93,SSE,150,1.0,2.0,79,0.00,,,0.30,VWS V12.08,2013-09-29 03:36:00,
2013-09-28 22:41:00,48.7,42.5,29.93,SSE,158,2.0,4.0,79,0.00,,,0.30,VWS V12.08,2013-09-29 03:41:00,
2013-09-28 22:46:00,48.5,42.3,29.94,SSW,195,1.0,4.0,79,0.00,,,0.30,VWS V12.08,2013-09-29 03:46:00,
2013-09-28 22:51:00,48.6,42.4,29.94,SW,219,0.0,4.0,79,0.00,,,0.30,VWS V12.08,2013-09-29 03:51:00,
2013-09-28 22:56:00,48.5,42.6,29.94,SSE,164,3.0,4.0,80,0.00,,,0.30,VWS V12.08,2013-09-29 03:56:00,
2013-09-28 23:01:00,48.4,42.5,29.94,SSE,167,3.0,4.0,80,0.00,,,0.30,VWS V12.08,2013-09-29 04:01:00,
2013-09-28 23:06:00,48.4,42.5,29.94,SSW,198,2.0,2.0,80,0.00,,,0.30,VWS V12.08,2013-09-29 04:06:00,
2013-09-28 23:11:00,48.3,42.4,29.94,South,173,1.0,2.0,80,0.00,,,0.30,VWS V12.08,2013-09-29 04:11:00,
2013-09-28 23:16:00,48.2,42.3,29.94,SSW,210,0.0,2.0,80,0.00,,,0.30,VWS V12.08,2013-09-29 04:16:00,
2013-09-28 23:21:00,48.1,42.2,29.94,South,173,0.0,3.0,80,0.00,,,0.30,VWS V12.08,2013-09-29 04:21:00,
2013-09-28 23:26:00,48.0,42.5,29.94,SSE,159,0.0,3.0,81,0.00,,,0.30,VWS V12.08,2013-09-29 04:26:00,
2013-09-28 23:31:00,47.8,42.3,29.94,SE,140,0.0,1.0,81,0.00,,,0.30,VWS V12.08,2013-09-29 04:31:00,
2013-09-28 23:36:00,47.7,42.2,29.94,South,188,0.0,2.0,81,0.00,,,0.30,VWS V12.08,2013-09-29 04:36:00,
2013-09-28 23:41:00,47.6,42.1,29.94,SSW,194,1.0,2.0,81,0.00,,,0.30,VWS V12.08,2013-09-29 04:41:00,
2013-09-28 23:46:00,47.6,42.1,29.94,SSW,197,1.0,3.0,81,0.00,,,0.30,VWS V12.08,2013-09-29 04:46:00,
2013-09-28 23:51:00,47.6,42.1,29.94,South,191,2.0,3.0,81,0.00,,,0.30,VWS V12.08,2013-09-29 04:51:00,
2013-09-28 23:56:00,47.7,42.2,29.94,South,184,2.0,4.0,81,0.00,,,0.30,VWS V12.08,2013-09-29 04:56:00,